SWA225 KABQ-KLAX

Flight info

Callsign SWA225
Flight time N/A
Altitude 36000
Route RDRNR3 ZUN J6 DRK HIPPI GABBL HLYWD1
Aircraft B738/M-SADE2E3GIJ4RWZ/LB1D1

Departure

Time N/A
Airport Albuquerque International Sunport (KABQ)

Arrival

Time 2026-04-25 17:42
Airport Los Angeles International Airport (KLAX)
Time Latitude Longitude Altitude Speed Heading
2026-04-25 16:44 34.76190 -111.82576 35990 ft 378 kts 262°
2026-04-25 16:44 34.75911 -111.85756 35986 ft 378 kts 262°
2026-04-25 16:44 34.75352 -111.92106 35960 ft 378 kts 262°
2026-04-25 16:45 34.74789 -111.98453 35935 ft 377 kts 262°
2026-04-25 16:45 34.74224 -112.04798 35900 ft 377 kts 262°
2026-04-25 16:46 34.73656 -112.11143 35879 ft 379 kts 262°
2026-04-25 16:46 34.73177 -112.16449 35900 ft 379 kts 262°
2026-04-25 16:47 34.72507 -112.23890 35928 ft 378 kts 262°
2026-04-25 16:47 34.71928 -112.30240 35964 ft 377 kts 262°
2026-04-25 16:48 34.71347 -112.36574 35979 ft 377 kts 262°
2026-04-25 16:48 34.70767 -112.42903 35980 ft 376 kts 262°
2026-04-25 16:49 34.70175 -112.49226 35982 ft 376 kts 261°
2026-04-25 16:49 34.69826 -112.52374 35806 ft 376 kts 260°
2026-04-25 16:49 34.69454 -112.55481 35811 ft 376 kts 260°
2026-04-25 16:50 34.68684 -112.61776 35804 ft 377 kts 260°
2026-04-25 16:50 34.67923 -112.68085 35801 ft 377 kts 260°
2026-04-25 16:51 34.67171 -112.74385 35812 ft 377 kts 260°
2026-04-25 16:51 34.66545 -112.79630 35812 ft 377 kts 260°
2026-04-25 16:52 34.65662 -112.87007 35800 ft 378 kts 260°
2026-04-25 16:52 34.64901 -112.93333 35806 ft 379 kts 260°
2026-04-25 16:53 34.63756 -113.02806 35809 ft 378 kts 259°
2026-04-25 16:54 34.62990 -113.09119 35816 ft 378 kts 260°
2026-04-25 16:54 34.62217 -113.15442 35816 ft 379 kts 259°
2026-04-25 16:55 34.61442 -113.21747 35813 ft 381 kts 259°
2026-04-25 16:55 34.60658 -113.28115 35805 ft 382 kts 259°
2026-04-25 16:56 34.59870 -113.34484 35799 ft 381 kts 259°
2026-04-25 16:56 34.59082 -113.40841 35798 ft 381 kts 259°
2026-04-25 16:57 34.58290 -113.47194 35802 ft 381 kts 259°
2026-04-25 16:57 34.57494 -113.53564 35800 ft 382 kts 259°
2026-04-25 16:58 34.56695 -113.59934 35800 ft 382 kts 259°
2026-04-25 16:58 34.55906 -113.66314 35803 ft 382 kts 259°
2026-04-25 16:59 34.55209 -113.72703 35797 ft 382 kts 260°
2026-04-25 16:59 34.54522 -113.79093 35792 ft 382 kts 259°
2026-04-25 17:00 34.53822 -113.85493 35793 ft 383 kts 259°
2026-04-25 17:00 34.53122 -113.91851 35797 ft 383 kts 259°
2026-04-25 17:01 34.52413 -113.98257 35804 ft 383 kts 259°
2026-04-25 17:01 34.51696 -114.04657 35814 ft 383 kts 259°
2026-04-25 17:02 34.50615 -114.10954 35814 ft 381 kts 253°
2026-04-25 17:02 34.49223 -114.17160 35827 ft 382 kts 253°
2026-04-25 17:03 34.47842 -114.23383 35835 ft 383 kts 253°
2026-04-25 17:03 34.46493 -114.29626 35836 ft 383 kts 254°
2026-04-25 17:04 34.45156 -114.35877 35784 ft 383 kts 254°
2026-04-25 17:04 34.43822 -114.42120 35793 ft 383 kts 254°
2026-04-25 17:05 34.42494 -114.48323 35789 ft 383 kts 253°
2026-04-25 17:05 34.40480 -114.57693 35797 ft 383 kts 253°
2026-04-25 17:06 34.39133 -114.63941 35803 ft 383 kts 253°
2026-04-25 17:06 34.37783 -114.70184 35799 ft 383 kts 253°
2026-04-25 17:07 34.36431 -114.76423 35803 ft 383 kts 253°
2026-04-25 17:07 34.35075 -114.82673 35805 ft 384 kts 253°
2026-04-25 17:08 34.33718 -114.88911 35811 ft 383 kts 253°
2026-04-25 17:08 34.32354 -114.95142 35809 ft 384 kts 253°
2026-04-25 17:09 34.30981 -115.01384 35817 ft 384 kts 253°
2026-04-25 17:09 34.29607 -115.07631 35813 ft 384 kts 253°
2026-04-25 17:10 34.28236 -115.13873 35816 ft 384 kts 253°
2026-04-25 17:10 34.26868 -115.20069 35819 ft 384 kts 253°
2026-04-25 17:11 34.25511 -115.26300 35816 ft 383 kts 253°
2026-04-25 17:11 34.24185 -115.32538 35823 ft 384 kts 253°
2026-04-25 17:12 34.22855 -115.38787 35820 ft 384 kts 253°
2026-04-25 17:12 34.21523 -115.45022 35833 ft 383 kts 253°
2026-04-25 17:13 34.20629 -115.49193 35835 ft 383 kts 253°
2026-04-25 17:13 34.18850 -115.57477 35844 ft 383 kts 253°
2026-04-25 17:14 34.17508 -115.63713 35842 ft 384 kts 253°
2026-04-25 17:14 34.16206 -115.69965 35848 ft 386 kts 257°
2026-04-25 17:15 34.15565 -115.76413 35871 ft 387 kts 261°
2026-04-25 17:15 34.15016 -115.82841 35877 ft 388 kts 260°
2026-04-25 17:16 34.14417 -115.89259 35888 ft 381 kts 260°
2026-04-25 17:16 34.14109 -115.92447 35633 ft 384 kts 259°
2026-04-25 17:16 34.13796 -115.95647 35339 ft 385 kts 259°
2026-04-25 17:17 34.13478 -115.98869 34903 ft 387 kts 260°
2026-04-25 17:17 34.13265 -116.01049 34486 ft 389 kts 259°
2026-04-25 17:17 34.12945 -116.04297 33993 ft 390 kts 259°
2026-04-25 17:17 34.12624 -116.07545 33452 ft 390 kts 259°
2026-04-25 17:18 34.12309 -116.10744 32978 ft 389 kts 259°
2026-04-25 17:18 34.11982 -116.14053 32509 ft 396 kts 260°
2026-04-25 17:18 34.11657 -116.17341 32052 ft 404 kts 260°
2026-04-25 17:18 34.11324 -116.20717 31581 ft 409 kts 260°
2026-04-25 17:19 34.10987 -116.24138 31093 ft 410 kts 260°
2026-04-25 17:19 34.10646 -116.27570 30576 ft 413 kts 260°
2026-04-25 17:19 34.10300 -116.31018 30072 ft 414 kts 260°
2026-04-25 17:19 34.09940 -116.34443 29116 ft 411 kts 260°
2026-04-25 17:20 34.09568 -116.37881 28374 ft 408 kts 260°
2026-04-25 17:20 34.09200 -116.41277 27853 ft 413 kts 260°
2026-04-25 17:20 34.08820 -116.44770 27366 ft 427 kts 260°
2026-04-25 17:20 34.08441 -116.48300 26851 ft 419 kts 260°
2026-04-25 17:21 34.08075 -116.51741 26373 ft 409 kts 260°
2026-04-25 17:21 34.07714 -116.55102 25907 ft 399 kts 260°
2026-04-25 17:21 34.07359 -116.58379 25444 ft 390 kts 260°
2026-04-25 17:21 34.07029 -116.61611 24875 ft 386 kts 261°
2026-04-25 17:22 34.06734 -116.64794 24435 ft 379 kts 261°
2026-04-25 17:22 34.06543 -116.66881 24142 ft 375 kts 261°
2026-04-25 17:22 34.06167 -116.71024 23568 ft 368 kts 261°
2026-04-25 17:22 34.05889 -116.74064 23095 ft 362 kts 261°
2026-04-25 17:23 34.05613 -116.77057 22684 ft 356 kts 261°
2026-04-25 17:23 34.05343 -116.79965 22272 ft 351 kts 261°
2026-04-25 17:23 34.05072 -116.82871 21876 ft 347 kts 261°
2026-04-25 17:23 34.04797 -116.85787 21466 ft 343 kts 262°
2026-04-25 17:24 34.04531 -116.88597 21120 ft 340 kts 261°
2026-04-25 17:24 34.04218 -116.91410 20667 ft 338 kts 259°
2026-04-25 17:24 34.03843 -116.94200 20265 ft 336 kts 258°
2026-04-25 17:24 34.03467 -116.96966 19890 ft 333 kts 259°
2026-04-25 17:25 34.03100 -116.99722 19527 ft 331 kts 259°
2026-04-25 17:25 34.02742 -117.02451 19155 ft 329 kts 259°
2026-04-25 17:25 34.02399 -117.05188 18777 ft 330 kts 259°
2026-04-25 17:25 34.02073 -117.07939 18403 ft 332 kts 260°
2026-04-25 17:26 34.01751 -117.10693 17988 ft 331 kts 260°
2026-04-25 17:26 34.01431 -117.13436 17582 ft 329 kts 260°
2026-04-25 17:26 34.01112 -117.16152 17207 ft 326 kts 260°
2026-04-25 17:26 34.00791 -117.18849 16902 ft 323 kts 260°
2026-04-25 17:27 34.00472 -117.21523 16512 ft 321 kts 259°
2026-04-25 17:27 34.00155 -117.24179 16154 ft 319 kts 260°
2026-04-25 17:27 33.99839 -117.26816 15771 ft 316 kts 260°
2026-04-25 17:27 33.99633 -117.28546 15569 ft 314 kts 259°
2026-04-25 17:28 33.99212 -117.32037 15062 ft 314 kts 259°
2026-04-25 17:28 33.98904 -117.34646 14690 ft 315 kts 259°
2026-04-25 17:28 33.98599 -117.37256 14326 ft 314 kts 260°
2026-04-25 17:28 33.98295 -117.39856 13967 ft 313 kts 260°
2026-04-25 17:29 33.97990 -117.42452 13579 ft 312 kts 259°
2026-04-25 17:29 33.97684 -117.45041 13180 ft 311 kts 260°
2026-04-25 17:29 33.97389 -117.47582 12801 ft 310 kts 262°
2026-04-25 17:29 33.97512 -117.50178 12440 ft 314 kts 278°
2026-04-25 17:30 33.98075 -117.52715 12100 ft 314 kts 282°
2026-04-25 17:30 33.98690 -117.55228 11728 ft 310 kts 283°
2026-04-25 17:30 33.99297 -117.57681 11408 ft 304 kts 283°
2026-04-25 17:30 33.99891 -117.60120 11031 ft 301 kts 283°
2026-04-25 17:31 34.00468 -117.62532 10670 ft 298 kts 283°
2026-04-25 17:31 34.01029 -117.64905 10311 ft 290 kts 283°
2026-04-25 17:31 34.01564 -117.67170 10184 ft 271 kts 283°
2026-04-25 17:31 34.02052 -117.69303 10042 ft 258 kts 279°
2026-04-25 17:32 34.02086 -117.71427 9741 ft 253 kts 261°
2026-04-25 17:32 34.01860 -117.73517 9471 ft 251 kts 262°
2026-04-25 17:32 34.01647 -117.75611 9157 ft 252 kts 262°
2026-04-25 17:32 34.01439 -117.77698 8869 ft 250 kts 262°
2026-04-25 17:33 34.01234 -117.79777 8591 ft 249 kts 262°
2026-04-25 17:33 34.01031 -117.81853 8319 ft 249 kts 262°
2026-04-25 17:33 34.00828 -117.83924 8042 ft 249 kts 262°
2026-04-25 17:33 34.00625 -117.86000 7765 ft 249 kts 262°
2026-04-25 17:34 34.00422 -117.88074 7482 ft 250 kts 262°
2026-04-25 17:34 34.00217 -117.90154 7201 ft 250 kts 263°
2026-04-25 17:34 34.00013 -117.92242 6923 ft 250 kts 263°
2026-04-25 17:34 33.99815 -117.94261 6674 ft 235 kts 263°
2026-04-25 17:35 33.99629 -117.96164 6400 ft 223 kts 263°
2026-04-25 17:35 33.99455 -117.97995 6155 ft 218 kts 263°
2026-04-25 17:35 33.99245 -117.99818 5856 ft 222 kts 262°
2026-04-25 17:35 33.99073 -118.01695 5581 ft 227 kts 263°
2026-04-25 17:36 33.98891 -118.03582 5262 ft 225 kts 263°
2026-04-25 17:36 33.98712 -118.05408 4960 ft 217 kts 262°
2026-04-25 17:36 33.98535 -118.07193 4757 ft 215 kts 261°
2026-04-25 17:36 33.98352 -118.09020 4536 ft 225 kts 261°
2026-04-25 17:37 33.98162 -118.10913 4305 ft 230 kts 261°
2026-04-25 17:37 33.97971 -118.12830 4028 ft 229 kts 260°
2026-04-25 17:37 33.97782 -118.14720 3789 ft 225 kts 261°
2026-04-25 17:37 33.97597 -118.16574 3552 ft 221 kts 260°
2026-04-25 17:38 33.97417 -118.18379 3337 ft 212 kts 260°
2026-04-25 17:38 33.97303 -118.19528 3198 ft 206 kts 260°
2026-04-25 17:38 33.97079 -118.21759 2905 ft 196 kts 261°
2026-04-25 17:38 33.96933 -118.23364 2690 ft 191 kts 259°
2026-04-25 17:39 33.96781 -118.24908 2490 ft 182 kts 258°
2026-04-25 17:39 33.96627 -118.26408 2354 ft 179 kts 258°
2026-04-25 17:39 33.96468 -118.27923 2150 ft 187 kts 260°
2026-04-25 17:39 33.96311 -118.29458 1922 ft 187 kts 260°
2026-04-25 17:40 33.96152 -118.31016 1669 ft 184 kts 258°
2026-04-25 17:40 33.95995 -118.32535 1416 ft 182 kts 259°
2026-04-25 17:40 33.95839 -118.34040 1162 ft 182 kts 261°
2026-04-25 17:40 33.95685 -118.35551 930 ft 181 kts 261°
2026-04-25 17:41 33.95534 -118.37026 684 ft 172 kts 261°
2026-04-25 17:41 33.95396 -118.38391 496 ft 155 kts 258°
2026-04-25 17:41 33.95278 -118.39624 250 ft 142 kts 261°
2026-04-25 17:41 33.95156 -118.40733 125 ft 122 kts 262°
2026-04-25 17:42 33.95076 -118.41494 122 ft 51 kts 263°
2026-04-25 17:42 33.95025 -118.41764 123 ft 26 kts 246°
2026-04-25 17:42 33.94933 -118.41936 125 ft 22 kts 232°
2026-04-25 17:42 33.94841 -118.42077 123 ft 21 kts 232°
2026-04-25 17:43 33.94754 -118.42218 121 ft 18 kts 225°
2026-04-25 17:43 33.94692 -118.42155 121 ft 17 kts 83°
2026-04-25 17:43 33.94708 -118.42017 125 ft 16 kts 86°
2026-04-25 17:43 33.94720 -118.41883 122 ft 16 kts 80°